Northolt, United Kingdom

4:10 AM GMT on January 18, 2017 (GMT +0000)
Northolt Air Base

Weather History for EGWU - May, 2013

Change the Weather History Date:

Wednesday, May 22, 2013

  Actual Average Record
Temperature  
Mean Temperature 53 °F -  
Max Temperature 58 °F 66 °F 77 °F (2012)
Min Temperature 46 °F 50 °F 42 °F (2004)
Degree Days  
Heating Degree Days 12    
Growing Degree Days 3 (Base 50)    
Moisture  
Dew Point 42 °F    
Average Humidity 67    
Maximum Humidity 87    
Minimum Humidity 34    
Precipitation  
Precipitation 0.00 in - - ()
Sea Level Pressure  
Sea Level Pressure 30.07 in    
Wind  
Wind Speed 7 mph ()    
Max Wind Speed 17 mph    
Max Gust Speed -    
Visibility 7.1 miles    
Events Rain    
Averages and records for this station are not official NWS values.
T = Trace of Precipitation, MM = Missing Value Source: Averaged Metar Reports

Daily Weather History Graph

Daily Weather History Graph

Search for Another Location

Airport or City:

Trip Planner

Search our weather history database for the weather conditions in past years. The results will help you decide how hot, cold, wet, or windy it might be!

Date:

Astronomy

May. 22, 2013 Rise Set
Actual Time 5:00 AM BST 8:57 PM BST
Civil Twilight 4:16 AM BST 9:40 PM BST
Nautical Twilight 3:16 AM BST 10:42 PM BST
Astronomical Twilight 1:13 AM BST 12:25 AM BST
Moon 5:44 PM BST (5/22) 3:17 AM BST (5/22)
Length of Visible Light 17h 24m
Length of Day
15h 57m
Waxing Gibbous, 90% of the Moon is Illuminated
May 22
Waxing Gibbous
May 25
Full
May 31
Last Quarter
Jun 8
New
Jun 16
First Quarter

Hourly Weather History & Observations

Time (BST) Temp. Windchill Dew Point Humidity Pressure Visibility Wind Dir Wind Speed Gust Speed Precip Events Conditions
12:50 AM 52 °F - 44 °F 68% 30.09 in 15 mi NNE 6.9 mph - -   Overcast
12:50 AM 51.8 °F - 44.6 °F 76% 30.06 in 6.2 mi NNE 6.9 mph - N/A   Overcast
1:50 AM 51.8 °F - 42.8 °F 71% 30.06 in 6.2 mi NNE 9.2 mph - N/A   Overcast
2:50 AM 50.0 °F - 44.6 °F 82% 30.06 in 6.2 mi NE 3.5 mph - N/A   Overcast
3:50 AM 50 °F - 42 °F 67% 30.09 in 18 mi NNE 3.5 mph - -   Overcast
3:50 AM 50.0 °F - 42.8 °F 76% 30.06 in 6.2 mi NNE 3.5 mph - N/A   Overcast
4:50 AM 50.0 °F - 44.6 °F 82% 30.06 in 6.2 mi NW 2.3 mph - N/A   Overcast
5:50 AM 50.0 °F - 44.6 °F 82% 30.06 in 6.2 mi NW 2.3 mph - N/A   Mostly Cloudy
6:50 AM 49 °F - 45 °F 83% 30.09 in 4 mi NW 3.5 mph - - Rain Light Drizzle
6:50 AM 50.0 °F - 44.6 °F 82% 30.06 in 4.3 mi NW 3.5 mph - N/A   Light Drizzle
7:08 AM 50.0 °F - 46.4 °F 87% 30.06 in 2.5 mi NW 3.5 mph - N/A   Light Drizzle
7:30 AM 50.0 °F - 46.4 °F 87% 30.06 in 2.5 mi West 4.6 mph - N/A   Light Drizzle
7:50 AM 50.0 °F - 46.4 °F 87% 30.09 in 5.6 mi WNW 3.5 mph - N/A   Light Drizzle
8:50 AM 50.0 °F - 44.6 °F 82% 30.09 in 6.2 mi NW 9.2 mph - N/A   Overcast
9:50 AM 51 °F - 44 °F 69% 30.11 in 12 mi NNW 10.4 mph - -   Partly Cloudy
9:50 AM 51.8 °F - 44.6 °F 76% 30.09 in 6.2 mi NNW 10.4 mph - N/A   Overcast
10:50 AM 51.8 °F - 44.6 °F 76% 30.09 in 6.2 mi NW 9.2 mph - N/A   Overcast
11:50 AM 53.6 °F - 44.6 °F 72% 30.09 in 6.2 mi NW 10.4 mph - N/A   Overcast
12:50 PM 53 °F - 44 °F 63% 30.11 in 19 mi NW 10.4 mph - -   Partly Cloudy
12:50 PM 53.6 °F - 44.6 °F 72% 30.09 in 6.2 mi NW 10.4 mph - N/A   Overcast
1:50 PM 53.6 °F - 44.6 °F 72% 30.09 in 6.2 mi NW 15.0 mph - N/A   Overcast
2:50 PM 55.4 °F - 42.8 °F 63% 30.09 in 6.2 mi NW 10.4 mph - N/A   Overcast
3:50 PM 56 °F - 43 °F 51% 30.09 in 22 mi NW 11.5 mph - -   Overcast
3:50 PM 55.4 °F - 42.8 °F 63% 30.06 in 6.2 mi NW 11.5 mph - N/A   Overcast
4:50 PM 57.2 °F - 41.0 °F 55% 30.06 in 6.2 mi NW 11.5 mph - N/A   Mostly Cloudy
5:50 PM 57.2 °F - 35.6 °F 44% 30.04 in 6.2 mi NW 17.3 mph - N/A   Mostly Cloudy
6:50 PM 56 °F - 36 °F 34% 30.05 in 25 mi NNW 15.0 mph - -   Partly Cloudy
6:50 PM 55.4 °F - 35.6 °F 47% 30.04 in 6.2 mi NNW 15.0 mph - N/A   Scattered Clouds
7:50 PM 53.6 °F - 33.8 °F 47% 30.04 in 6.2 mi NNW 11.5 mph - N/A   Partly Cloudy
8:50 PM 51.8 °F - 35.6 °F 54% 30.04 in 6.2 mi NNW 9.2 mph - N/A   Partly Cloudy
9:50 PM 49 °F - 34 °F 44% 30.06 in 25 mi NW 8.1 mph - -   Scattered Clouds
9:50 PM 48.2 °F - 33.8 °F 58% 30.04 in 6.2 mi NW 8.1 mph - N/A   Partly Cloudy
10:50 PM 48.2 °F - 33.8 °F 58% 30.04 in 6.2 mi WNW 10.4 mph - N/A   Partly Cloudy
11:50 PM 46.4 °F 41.9 °F 32.0 °F 57% 30.01 in 6.2 mi NW 9.2 mph - N/A   Unknown